When you browse on this site, cookies collect data to enhance your experience and personalize the content and advertising you see.
Visit our Privacy Policy to learn more. By continuing to use the site, you agree to this use of cookies and data.
  • In United Kingdom
  • List of Countries
  • For 7 days
  • Water Temperature
  • Weather Map
  • Weather Widgets
  • user-avatar
    Login

    Hourly Weather Novooleksiyivka

    Today, 19 February, Wednesday

    Time Temperature Precipitation Wind Pressure Humidity
    00:00 +3°C° 0 mm 3 mps 763 mmHg 88%
    01:00 +3°C° 0 mm 3 mps 763 mmHg 90%
    02:00 +2°C° 0 mm 3 mps 763 mmHg 91%
    03:00 +2°C° 0 mm 3 mps 762 mmHg 92%
    04:00 +4°C° 0 mm 2 mps 762 mmHg 92%
    05:00 +4°C° 0 mm 2 mps 762 mmHg 93%
    06:00 +4°C° 0.4 mm 2 mps 762 mmHg 94%
    07:00 +4°C° 0.4 mm 2 mps 762 mmHg 95%
    08:00 +4°C° 0.4 mm 2 mps 762 mmHg 96%
    09:00 +5°C° 0.5 mm 2 mps 762 mmHg 94%
    10:00 +6°C° 0.5 mm 1 mps 762 mmHg 92%
    11:00 +7°C° 0.5 mm 1 mps 762 mmHg 90%
    12:00 +7°C° 0.2 mm 1 mps 762 mmHg 85%
    13:00 +8°C° 0.2 mm 1 mps 762 mmHg 80%
    14:00 +9°C° 0.2 mm 1 mps 761 mmHg 75%
    15:00 +9°C° 0 mm 1 mps 761 mmHg 78%
    16:00 +8°C° 0 mm 1 mps 761 mmHg 80%
    17:00 +8°C° 0 mm 1 mps 761 mmHg 82%
    18:00 +7°C° 0 mm 1 mps 761 mmHg 84%
    19:00 +7°C° 0 mm 1 mps 761 mmHg 87%
    20:00 +5°C° 0 mm 2 mps 761 mmHg 90%
    21:00 +5°C° 0 mm 2 mps 761 mmHg 91%
    22:00 +3°C° 0 mm 3 mps 761 mmHg 93%
    23:00 +3°C° 0 mm 3 mps 761 mmHg 94%

    Tomorrow, 20 February, Thursday

    Time Temperature Precipitation Wind Pressure Humidity
    00:00 +2°C° 0 mm 3 mps 761 mmHg 95%
    01:00 +1°C° 0 mm 4 mps 761 mmHg 96%
    02:00 0°C° 0 mm 4 mps 761 mmHg 96%
    03:00 0°C° 0 mm 4 mps 761 mmHg 96%
    04:00 0°C° 0 mm 4 mps 761 mmHg 95%
    05:00 0°C° 0 mm 4 mps 761 mmHg 95%
    06:00 0°C° 0 mm 4 mps 761 mmHg 94%
    07:00 0°C° 0 mm 4 mps 762 mmHg 94%
    08:00 0°C° 0 mm 5 mps 762 mmHg 93%
    09:00 +1°C° 0 mm 4 mps 762 mmHg 91%
    10:00 +1°C° 0 mm 4 mps 762 mmHg 88%
    11:00 +3°C° 0 mm 4 mps 762 mmHg 85%
    12:00 +3°C° 0 mm 4 mps 762 mmHg 84%
    13:00 +3°C° 0 mm 4 mps 762 mmHg 82%
    14:00 +4°C° 0 mm 4 mps 761 mmHg 80%
    15:00 +4°C° 0 mm 4 mps 762 mmHg 81%
    16:00 +3°C° 0 mm 4 mps 762 mmHg 81%
    17:00 +3°C° 0 mm 4 mps 762 mmHg 82%
    18:00 +3°C° 0 mm 4 mps 762 mmHg 83%
    19:00 +2°C° 0 mm 5 mps 762 mmHg 84%
    20:00 +1°C° 0 mm 5 mps 762 mmHg 85%
    21:00 +1°C° 0 mm 5 mps 762 mmHg 86%
    22:00 +1°C° 0 mm 5 mps 762 mmHg 86%
    23:00 +1°C° 0 mm 5 mps 762 mmHg 86%

    Day after tomorrow, 21 February, Friday

    Time Temperature Precipitation Wind Pressure Humidity
    00:00 +1°C° 0 mm 5 mps 762 mmHg 87%
    01:00 +1°C° 0 mm 5 mps 762 mmHg 88%
    02:00 +1°C° 0 mm 5 mps 762 mmHg 88%
    03:00 +1°C° 0 mm 6 mps 762 mmHg 88%
    04:00 -1°C° 0 mm 6 mps 762 mmHg 87%
    05:00 -1°C° 0 mm 6 mps 762 mmHg 87%
    06:00 0°C° 0 mm 5 mps 762 mmHg 87%
    07:00 +1°C° 0 mm 5 mps 762 mmHg 86%
    08:00 +1°C° 0 mm 5 mps 762 mmHg 86%
    15:00 +3°C° 0.1 mm 4 mps 762 mmHg 91%
    16:00 +3°C° 0.1 mm 4 mps 762 mmHg 92%
    17:00 +3°C° 0.1 mm 4 mps 762 mmHg 93%
    18:00 +3°C° 0.1 mm 4 mps 762 mmHg 93%
    19:00 +3°C° 0.1 mm 4 mps 762 mmHg 94%
    20:00 +3°C° 0.1 mm 3 mps 763 mmHg 94%
    21:00 +3°C° 0.1 mm 3 mps 763 mmHg 94%
    22:00 +3°C° 0.1 mm 3 mps 763 mmHg 94%
    23:00 +3°C° 0.1 mm 3 mps 763 mmHg 94%

    22 February, Saturday

    Time Temperature Precipitation Wind Pressure Humidity
    00:00 +3°C° 0.1 mm 3 mps 763 mmHg 94%
    01:00 +3°C° 0.1 mm 3 mps 763 mmHg 94%
    02:00 +2°C° 0.1 mm 3 mps 763 mmHg 94%
    03:00 +2°C° 0.1 mm 3 mps 763 mmHg 94%
    04:00 +2°C° 0.1 mm 3 mps 763 mmHg 94%
    05:00 +2°C° 0.1 mm 3 mps 763 mmHg 93%
    06:00 +1°C° 0 mm 4 mps 763 mmHg 93%
    07:00 +1°C° 0 mm 4 mps 764 mmHg 92%
    08:00 +1°C° 0 mm 4 mps 764 mmHg 91%
    09:00 +1°C° 0 mm 4 mps 764 mmHg 88%
    10:00 +3°C° 0 mm 4 mps 765 mmHg 85%
    11:00 +3°C° 0 mm 3 mps 765 mmHg 82%
    12:00 +3°C° 0 mm 4 mps 765 mmHg 79%
    13:00 +4°C° 0 mm 4 mps 765 mmHg 75%
    14:00 +4°C° 0 mm 4 mps 765 mmHg 72%
    15:00 +4°C° 0 mm 4 mps 765 mmHg 72%
    16:00 +4°C° 0 mm 4 mps 766 mmHg 72%
    17:00 +3°C° 0 mm 4 mps 766 mmHg 72%
    18:00 +3°C° 0 mm 4 mps 766 mmHg 73%
    19:00 +3°C° 0 mm 4 mps 766 mmHg 74%
    20:00 +3°C° 0 mm 4 mps 767 mmHg 75%
    21:00 +1°C° 0 mm 4 mps 767 mmHg 78%
    22:00 +2°C° 0 mm 3 mps 767 mmHg 81%
    23:00 +1°C° 0 mm 3 mps 767 mmHg 84%

    23 February, Sunday

    Time Temperature Precipitation Wind Pressure Humidity
    00:00 +1°C° 0 mm 3 mps 767 mmHg 85%
    01:00 0°C° 0 mm 3 mps 767 mmHg 87%
    02:00 0°C° 0 mm 3 mps 766 mmHg 89%
    03:00 +1°C° 0 mm 2 mps 766 mmHg 89%
    04:00 -1°C° 0 mm 2 mps 766 mmHg 89%
    05:00 -1°C° 0 mm 2 mps 766 mmHg 90%
    06:00 +1°C° 0 mm 2 mps 765 mmHg 87%
    07:00 0°C° 0 mm 3 mps 765 mmHg 84%
    08:00 +1°C° 0 mm 3 mps 765 mmHg 81%
    09:00 +1°C° 0 mm 4 mps 765 mmHg 76%
    10:00 +2°C° 0 mm 5 mps 764 mmHg 71%
    11:00 +4°C° 0 mm 6 mps 764 mmHg 65%
    12:00 +4°C° 0 mm 6 mps 763 mmHg 65%
    13:00 +4°C° 0 mm 7 mps 762 mmHg 64%
    14:00 +5°C° 0 mm 8 mps 762 mmHg 63%
    15:00 +5°C° 0 mm 8 mps 761 mmHg 65%
    16:00 +4°C° 0 mm 8 mps 761 mmHg 66%
    17:00 +4°C° 0 mm 8 mps 760 mmHg 68%
    18:00 +3°C° 0 mm 9 mps 760 mmHg 70%
    19:00 +3°C° 0 mm 9 mps 760 mmHg 73%
    20:00 +2°C° 0 mm 9 mps 759 mmHg 75%
    21:00 +3°C° 0 mm 9 mps 759 mmHg 74%
    22:00 +3°C° 0 mm 9 mps 759 mmHg 73%
    23:00 +3°C° 0 mm 9 mps 759 mmHg 71%

    24 February, Monday

    Time Temperature Precipitation Wind Pressure Humidity
    00:00 +3°C° 0 mm 9 mps 758 mmHg 73%
    01:00 +2°C° 0 mm 8 mps 758 mmHg 75%
    02:00 +3°C° 0 mm 7 mps 758 mmHg 76%
    03:00 +3°C° 0 mm 6 mps 757 mmHg 78%
    04:00 +2°C° 0 mm 5 mps 757 mmHg 80%
    05:00 +3°C° 0 mm 4 mps 757 mmHg 82%
    06:00 +2°C° 0 mm 5 mps 756 mmHg 82%
    07:00 +3°C° 0 mm 6 mps 755 mmHg 83%
    08:00 +3°C° 0 mm 6 mps 754 mmHg 83%
    09:00 +4°C° 0 mm 8 mps 753 mmHg 78%
    10:00 +6°C° 0 mm 9 mps 752 mmHg 73%
    11:00 +7°C° 0 mm 10 mps 751 mmHg 68%
    12:00 +6°C° 1.2 mm 11 mps 749 mmHg 75%
    13:00 +6°C° 1.2 mm 11 mps 748 mmHg 81%
    14:00 +4°C° 1.2 mm 12 mps 746 mmHg 88%
    15:00 +4°C° 1.7 mm 12 mps 745 mmHg 84%
    16:00 +4°C° 1.7 mm 12 mps 745 mmHg 80%
    17:00 +3°C° 1.7 mm 12 mps 744 mmHg 77%
    18:00 +1°C° 0.1 mm 13 mps 744 mmHg 75%
    19:00 0°C° 0.1 mm 13 mps 744 mmHg 74%
    20:00 -1°C° 0.1 mm 13 mps 744 mmHg 72%
    21:00 -1°C° 0.1 mm 14 mps 745 mmHg 75%
    22:00 -1°C° 0.1 mm 15 mps 745 mmHg 78%
    23:00 -3°C° 0.1 mm 16 mps 746 mmHg 81%
    Show more